TimeEST,TemperatureF,Dew PointF,Humidity,Sea Level PressureIn,VisibilityMPH,Wind Direction,Wind SpeedMPH,Gust SpeedMPH,PrecipitationIn,Events,Conditions,WindDirDegrees,DateUTC
12:15 AM,35.4,27.9,74,29.87,10.0,West,16.1,23.0,N/A,,Overcast,260,2013-02-12 05:15:00
12:34 AM,35.4,27.9,74,29.88,10.0,West,17.3,23.0,N/A,,Overcast,270,2013-02-12 05:34:00
12:55 AM,35.1,28.0,76,29.89,10.0,West,12.7,20.7,N/A,,Overcast,270,2013-02-12 05:55:00
1:14 AM,35.2,27.9,74,29.89,10.0,West,11.5,17.3,N/A,,Overcast,270,2013-02-12 06:14:00
1:34 AM,35.1,26.1,70,29.90,10.0,West,9.2,24.2,N/A,,Overcast,270,2013-02-12 06:34:00
1:55 AM,34.9,26.2,71,29.90,10.0,West,10.4,16.1,N/A,,Overcast,260,2013-02-12 06:55:00
2:14 AM,34.7,24.8,67,29.91,10.0,West,15.0,23.0,N/A,,Overcast,270,2013-02-12 07:14:00
2:34 AM,34.7,24.4,66,29.92,10.0,West,12.7,20.7,N/A,,Overcast,260,2013-02-12 07:34:00
2:55 AM,34.3,24.8,68,29.93,10.0,West,11.5,18.4,N/A,,Overcast,270,2013-02-12 07:55:00
3:14 AM,34.2,25.2,70,29.94,10.0,West,12.7,21.9,N/A,,Overcast,270,2013-02-12 08:14:00
3:34 AM,34.2,25.3,70,29.94,10.0,West,13.8,17.3,N/A,,Overcast,270,2013-02-12 08:34:00
3:54 AM,34.2,24.8,69,29.94,10.0,West,11.5,19.6,N/A,,Overcast,270,2013-02-12 08:54:00
4:14 AM,33.8,24.8,70,29.95,10.0,West,11.5,20.7,N/A,,Overcast,270,2013-02-12 09:14:00
4:34 AM,33.8,24.8,70,29.96,10.0,West,10.4,20.7,N/A,,Overcast,260,2013-02-12 09:34:00
4:54 AM,33.8,24.8,70,29.96,10.0,West,10.4,19.6,N/A,,Overcast,270,2013-02-12 09:54:00
5:15 AM,33.8,24.4,69,29.97,10.0,West,12.7,20.7,N/A,,Overcast,280,2013-02-12 10:15:00
5:34 AM,33.8,24.4,69,29.98,10.0,West,16.1,24.2,N/A,,Overcast,270,2013-02-12 10:34:00
5:54 AM,33.8,23.9,67,29.98,10.0,West,12.7,19.6,N/A,,Overcast,280,2013-02-12 10:54:00
6:14 AM,33.8,24.6,69,29.99,10.0,West,9.2,-,N/A,,Overcast,270,2013-02-12 11:14:00
6:34 AM,33.6,25.2,71,29.99,10.0,West,9.2,-,N/A,,Overcast,280,2013-02-12 11:34:00
6:54 AM,33.8,25.0,70,30.00,10.0,West,13.8,23.0,N/A,,Overcast,270,2013-02-12 11:54:00
7:14 AM,33.8,25.5,72,30.01,10.0,West,10.4,-,N/A,,Overcast,270,2013-02-12 12:14:00
7:35 AM,33.8,24.8,70,30.02,10.0,West,10.4,16.1,N/A,,Overcast,270,2013-02-12 12:35:00
7:54 AM,33.8,24.8,70,30.02,10.0,West,11.5,17.3,N/A,,Overcast,270,2013-02-12 12:54:00
8:15 AM,33.8,24.6,69,30.03,10.0,West,15.0,23.0,N/A,,Overcast,280,2013-02-12 13:15:00
8:34 AM,33.8,24.3,68,30.03,10.0,West,10.4,19.6,N/A,,Overcast,280,2013-02-12 13:34:00
8:54 AM,33.8,24.4,69,30.04,10.0,West,9.2,-,N/A,,Overcast,280,2013-02-12 13:54:00
9:15 AM,33.8,24.6,69,30.04,10.0,West,11.5,17.3,N/A,,Overcast,270,2013-02-12 14:15:00
9:34 AM,33.8,24.4,69,30.04,10.0,West,10.4,18.4,N/A,,Overcast,270,2013-02-12 14:34:00
9:55 AM,33.8,24.8,70,30.05,10.0,West,10.4,17.3,N/A,,Overcast,270,2013-02-12 14:55:00
10:14 AM,33.8,24.6,69,30.04,10.0,West,10.4,18.4,N/A,,Overcast,270,2013-02-12 15:14:00
10:34 AM,34.2,24.8,69,30.05,10.0,West,13.8,-,N/A,,Overcast,270,2013-02-12 15:34:00
10:55 AM,34.0,24.4,68,30.05,10.0,West,10.4,18.4,N/A,,Overcast,280,2013-02-12 15:55:00
11:14 AM,34.2,24.3,67,30.04,10.0,West,10.4,17.3,N/A,,Overcast,280,2013-02-12 16:14:00
11:35 AM,34.3,24.8,68,30.03,10.0,West,8.1,-,N/A,,Overcast,270,2013-02-12 16:35:00
11:54 AM,34.7,25.2,68,30.03,10.0,WSW,9.2,-,N/A,,Overcast,250,2013-02-12 16:54:00
12:14 PM,34.7,25.3,69,30.04,10.0,WSW,8.1,-,N/A,,Overcast,250,2013-02-12 17:14:00
12:35 PM,34.3,25.9,71,30.03,10.0,WSW,12.7,-,N/A,,Overcast,240,2013-02-12 17:35:00
12:54 PM,34.7,25.5,69,30.02,10.0,WSW,12.7,17.3,N/A,,Overcast,250,2013-02-12 17:54:00
1:14 PM,34.7,24.8,67,30.02,10.0,WSW,11.5,16.1,N/A,,Overcast,240,2013-02-12 18:14:00
1:34 PM,35.1,23.9,64,30.01,10.0,West,15.0,-,N/A,,Overcast,270,2013-02-12 18:34:00
1:54 PM,35.2,24.4,65,29.98,10.0,West,9.2,16.1,N/A,,Overcast,260,2013-02-12 18:54:00
2:15 PM,35.1,25.2,67,29.95,10.0,West,5.8,-,N/A,,Overcast,260,2013-02-12 19:15:00
2:34 PM,35.2,25.0,66,29.95,10.0,West,10.4,-,N/A,,Overcast,260,2013-02-12 19:34:00
2:54 PM,35.6,23.9,62,29.95,10.0,West,10.4,16.1,N/A,,Overcast,280,2013-02-12 19:54:00
3:14 PM,35.6,23.9,62,29.96,10.0,WSW,9.2,-,N/A,,Overcast,250,2013-02-12 20:14:00
3:34 PM,35.8,24.1,62,29.97,10.0,WSW,9.2,-,N/A,,Overcast,250,2013-02-12 20:34:00
3:55 PM,35.8,24.6,64,29.98,10.0,WSW,9.2,-,N/A,,Overcast,240,2013-02-12 20:55:00
4:14 PM,35.6,24.4,64,29.98,10.0,West,8.1,-,N/A,,Overcast,260,2013-02-12 21:14:00
4:34 PM,35.6,24.3,63,29.97,10.0,West,5.8,-,N/A,,Overcast,260,2013-02-12 21:34:00
4:55 PM,35.6,24.6,64,29.97,10.0,WSW,10.4,-,N/A,,Overcast,250,2013-02-12 21:55:00
5:14 PM,35.6,23.9,62,29.98,10.0,West,8.1,-,N/A,,Overcast,260,2013-02-12 22:14:00
5:34 PM,35.1,24.3,65,29.98,10.0,WSW,9.2,18.4,N/A,,Overcast,240,2013-02-12 22:34:00
5:55 PM,34.7,24.1,65,29.99,10.0,SW,10.4,17.3,N/A,,Overcast,230,2013-02-12 22:55:00
6:14 PM,34.5,24.3,66,29.99,10.0,WSW,9.2,17.3,N/A,,Overcast,240,2013-02-12 23:14:00
6:34 PM,34.2,24.4,68,29.99,10.0,WSW,6.9,16.1,N/A,,Overcast,250,2013-02-12 23:34:00
6:55 PM,34.3,23.9,66,29.99,10.0,West,4.6,-,N/A,,Overcast,270,2013-02-12 23:55:00
7:14 PM,34.2,23.7,66,29.98,10.0,West,5.8,-,N/A,,Overcast,270,2013-02-13 00:14:00
7:35 PM,34.2,23.9,66,29.97,10.0,West,5.8,-,N/A,,Overcast,260,2013-02-13 00:35:00
7:54 PM,34.2,24.3,67,29.97,10.0,WSW,4.6,-,N/A,,Overcast,250,2013-02-13 00:54:00
8:14 PM,33.8,24.3,68,29.96,10.0,West,5.8,-,N/A,,Overcast,260,2013-02-13 01:14:00
8:35 PM,34.0,24.6,69,29.97,10.0,West,5.8,-,N/A,,Overcast,260,2013-02-13 01:35:00
8:54 PM,33.8,24.8,70,29.95,10.0,West,6.9,-,N/A,,Overcast,270,2013-02-13 01:54:00
9:14 PM,33.8,24.1,68,29.95,10.0,West,10.4,-,N/A,,Overcast,270,2013-02-13 02:14:00
9:34 PM,33.3,23.5,68,29.95,10.0,WSW,8.1,-,N/A,,Overcast,240,2013-02-13 02:34:00
9:54 PM,33.1,23.0,66,29.94,10.0,West,6.9,-,N/A,,Overcast,260,2013-02-13 02:54:00
10:15 PM,32.9,22.8,66,29.94,10.0,West,10.4,-,N/A,,Overcast,260,2013-02-13 03:15:00
10:34 PM,32.2,22.1,66,29.94,10.0,West,5.8,-,N/A,,Overcast,260,2013-02-13 03:34:00
10:54 PM,32.2,22.1,66,29.93,10.0,West,8.1,-,N/A,,Overcast,270,2013-02-13 03:54:00
11:14 PM,32.2,22.5,67,29.93,10.0,West,10.4,-,N/A,,Overcast,260,2013-02-13 04:14:00
11:34 PM,32.0,22.1,67,29.93,10.0,West,8.1,-,N/A,,Overcast,280,2013-02-13 04:34:00
11:55 PM,32.0,22.6,68,29.93,10.0,NW,10.4,-,N/A,,Overcast,310,2013-02-13 04:55:00